[[{"header":{"parameterUnit":"m.s-1","parameterCategory":1,"la1":30.2991,"la2":30.254,"lo1":-89.0895,"lo2":-89.0444,"dy":0.0017,"dx":0.0017,"nx":28,"ny":28,"refTime":"2025-04-20T21:00:00:Z","depth":0,"parameterNumber":2,"parameterNumberName":"U-component_of_WINDS"},"data":[0,0,0,0,0,0,0,0,0,0,0,0,0,0,0,0,0,0,0,0,0,0,0,0,0,0,0,0,0,0,0,0,0,0,0,0,0,0,0,0,0,0,0,0,0,0,0,0,0,0,0,0,0,0,0,0,0,0,-1.127,-1.127,0,-1.1247,-1.1247,-1.1247,-1.1244,-1.1244,-1.1244,-1.1244,-1.1222,-1.1221,-1.1221,0,0,0,0,0,0,0,0,0,0,0,0,0,-1.1313,-1.1312,-1.127,-1.127,-1.127,-1.1247,-1.1247,-1.1247,-1.1244,-1.1244,-1.1244,-1.1244,-1.1222,-1.1221,-1.122,0,0,0,0,0,0,0,0,0,0,0,0,0,-1.1293,-1.1312,-1.127,-1.1265,-1.1265,-1.1247,-1.1247,-1.1247,-1.1244,-1.1244,-1.1244,-1.1245,-1.1223,-1.1221,-1.122,-1.1207,0,0,-1.1217,-1.1216,0,0,0,0,0,0,0,0,-1.1294,-1.1291,-1.1266,-1.1266,-1.1265,-1.1249,-1.1254,-1.1233,-1.1243,-1.1252,-1.1244,-1.1245,-1.1231,-1.1229,-1.1224,-1.1206,-1.1205,-1.1217,-1.1216,-1.1215,-1.1215,0,0,0,0,0,0,0,-1.1295,-1.1292,-1.1261,-1.1266,-1.1265,-1.1265,-1.1262,-1.125,-1.124,-1.1251,-1.1251,-1.1248,-1.123,-1.1225,-1.1223,-1.1204,-1.1217,-1.1216,-1.1215,-1.1214,-1.1174,-1.1174,0,0,0,0,0,0,-1.1297,-1.1293,-1.1262,-1.1261,-1.128,-1.1264,-1.1261,-1.1254,-1.124,-1.1238,-1.1248,-1.1248,-1.1227,-1.1225,-1.1223,-1.1206,-1.1215,-1.1214,-1.1214,-1.1175,-1.1174,-1.1174,0,0,0,0,0,0,-1.1298,-1.1295,-1.1263,-1.1277,-1.1273,-1.1263,-1.1254,-1.1253,-1.1248,-1.1237,-1.1236,-1.1244,-1.1227,-1.1224,-1.1211,-1.1205,-1.1214,-1.1213,-1.1175,-1.1174,-1.1174,-1.1172,0,0,0,0,0,0,-1.13,-1.1295,-1.1289,-1.1277,-1.1272,-1.1251,-1.1254,-1.1252,-1.1245,-1.1245,-1.1233,-1.1232,-1.1227,-1.1212,-1.1209,-1.1204,-1.1212,-1.1175,-1.1175,-1.1174,-1.1173,-1.1172,-1.1171,0,0,0,0,0,-1.1301,-1.129,-1.1289,-1.1285,-1.1265,-1.125,-1.1248,-1.1242,-1.1245,-1.1239,-1.1233,-1.1232,-1.1206,-1.1211,-1.1208,-1.1201,-1.1176,-1.1175,-1.1174,-1.1173,-1.1172,-1.1171,0,0,0,0,0,0,-1.1302,-1.1288,-1.1287,-1.1271,-1.1262,-1.125,-1.1243,-1.1241,-1.1231,-1.1232,-1.1226,-1.1223,-1.121,-1.1204,-1.121,-1.1188,-1.1191,-1.119,-1.1192,-1.119,-1.1189,-1.1191,-1.1211,0,0,0,0,0,-1.1301,-1.129,-1.1278,-1.1265,-1.1261,-1.1253,-1.1246,-1.1243,-1.1233,-1.1229,-1.1222,-1.1213,-1.1203,-1.1196,-1.1187,-1.1172,-1.117,-1.1166,-1.1165,-1.1164,-1.1163,-1.1155,-1.1154,-1.1171,-1.1171,-1.1171,0,0,-1.1297,-1.1288,-1.1282,-1.1265,-1.1258,-1.1247,-1.1249,-1.1238,-1.123,-1.1228,-1.1214,-1.1209,-1.1199,-1.1184,-1.1178,-1.1179,-1.1158,-1.1163,-1.1163,-1.1162,-1.1154,-1.1153,-1.1151,-1.1171,-1.1171,-1.1171,0,0,-1.1285,-1.1277,-1.1266,-1.1258,-1.1247,-1.1241,-1.1239,-1.1227,-1.1223,-1.1209,-1.1208,-1.1199,-1.1181,-1.1174,-1.1168,-1.1155,-1.1154,-1.1152,-1.1146,-1.1139,-1.1138,-1.1136,-1.1132,-1.113,-1.1151,-1.1151,-1.115,0,-1.1282,-1.1266,-1.126,-1.1249,-1.1242,-1.1239,-1.1228,-1.1221,-1.1207,-1.1203,-1.1205,-1.1183,-1.1176,-1.116,-1.1157,-1.1153,-1.115,-1.1153,-1.1138,-1.1137,-1.1136,-1.1131,-1.1129,-1.115,-1.115,-1.115,-1.115,0,-1.1263,-1.1252,-1.1244,-1.123,-1.1223,-1.1211,-1.1205,-1.1198,-1.1195,-1.119,-1.1177,-1.1168,-1.1157,-1.1153,-1.115,-1.1137,-1.1138,-1.1139,-1.1143,-1.1134,-1.113,-1.1128,-1.115,-1.115,-1.115,-1.115,0,0,-1.1251,-1.1234,-1.1231,-1.1225,-1.1213,-1.1204,-1.1193,-1.1182,-1.1176,-1.1167,-1.1158,-1.1144,-1.1145,-1.1138,-1.1135,-1.1128,-1.1118,-1.113,-1.113,-1.1128,-1.1104,-1.1103,-1.1101,-1.1118,-1.1118,-1.1117,-1.1104,0,-1.1237,-1.1217,-1.1212,-1.1195,-1.1184,-1.1182,-1.1173,-1.1164,-1.1159,-1.1151,-1.1145,-1.1135,-1.1137,-1.1133,-1.1127,-1.1121,-1.1113,-1.1122,-1.111,-1.1109,-1.1112,-1.1098,-1.1097,-1.1085,-1.1103,-1.1102,-1.1102,0,-1.1219,-1.1209,-1.1191,-1.118,-1.1175,-1.1167,-1.1156,-1.1147,-1.1138,-1.1135,-1.1128,-1.1126,-1.1115,-1.1119,-1.1105,-1.1111,-1.1106,-1.1102,-1.1102,-1.11,-1.1105,-1.1096,-1.1082,-1.108,-1.1099,-1.11,-1.11,0,-1.1211,-1.1194,-1.118,-1.1175,-1.1163,-1.1157,-1.1151,-1.1142,-1.1136,-1.1127,-1.1123,-1.1113,-1.1107,-1.11,-1.1095,-1.1099,-1.1081,-1.1085,-1.1078,-1.1079,-1.1074,-1.1075,-1.1058,-1.1072,-1.1072,-1.1072,-1.1072,0,-1.1197,-1.1186,-1.1177,-1.1169,-1.1157,-1.1151,-1.114,-1.1134,-1.1127,-1.1118,-1.1116,-1.1108,-1.1102,-1.1094,-1.109,-1.1079,-1.1076,-1.1074,-1.1073,-1.1074,-1.1074,-1.107,-1.1071,-1.1071,-1.1071,-1.1071,-1.1071,0,-1.1186,-1.118,-1.1166,-1.1155,-1.1152,-1.1143,-1.1134,-1.1127,-1.1122,-1.1111,-1.1108,-1.1101,-1.1091,-1.1085,-1.1073,-1.107,-1.1058,-1.1057,-1.1061,-1.106,-1.1054,-1.1055,-1.1034,-1.1032,-1.1047,-1.1047,-1.1046,0,-1.1177,-1.1169,-1.1157,-1.1151,-1.1145,-1.1135,-1.1129,-1.1123,-1.1117,-1.1106,-1.11,-1.109,-1.1081,-1.1065,-1.1059,-1.105,-1.1049,-1.1043,-1.1048,-1.1049,-1.1049,-1.1049,-1.1049,-1.1042,-1.1042,-1.1041,-1.1041,0,-1.1162,-1.116,-1.115,-1.1139,-1.1131,-1.1123,-1.1114,-1.111,-1.1103,-1.1096,-1.1085,-1.1079,-1.1066,-1.1056,-1.1046,-1.1041,-1.104,-1.104,-1.1038,-1.1039,-1.1041,-1.104,-1.1058,-1.104,-1.104,-1.104,-1.1041,-1.1041,-1.1152,-1.1145,-1.1135,-1.1125,-1.1118,-1.111,-1.1103,-1.1097,-1.1088,-1.1077,-1.1074,-1.1063,-1.1055,-1.1042,-1.1037,-1.1028,-1.103,-1.1027,-1.1026,-1.1025,-1.1025,-1.1042,-1.1027,-1.1027,-1.1027,-1.1027,-1.1027,0,-1.1137,-1.1131,-1.1121,-1.1109,-1.1101,-1.1101,-1.1092,-1.1085,-1.1075,-1.1068,-1.1059,-1.1047,-1.1038,-1.1031,-1.1022,-1.1016,-1.1016,-1.1014,-1.1014,-1.1013,-1.1024,-1.1027,-1.1015,-1.1015,-1.1015,-1.1015,-1.1015,-1.1015,-1.1128,-1.1115,-1.1111,-1.1096,-1.109,-1.1079,-1.1073,-1.1067,-1.106,-1.1047,-1.1039,-1.1035,-1.1028,-1.1018,-1.1009,-1.1007,-1.1004,-1.1002,-1.1001,-1.1011,-1.1012,-1.1014,-1.1016,-1.1002,-1.1002,-1.099,-1.099,-1.099]},{"header":{"parameterUnit":"m.s-1","parameterCategory":1,"la1":30.2991,"la2":30.254,"lo1":-89.0895,"lo2":-89.0444,"dy":0.0017,"dx":0.0017,"nx":28,"ny":28,"refTime":"2025-04-20T21:00:00:Z","depth":0,"parameterNumber":3,"parameterNumberName":"V-component_of_WINDS"},"data":[0,0,0,0,0,0,0,0,0,0,0,0,0,0,0,0,0,0,0,0,0,0,0,0,0,0,0,0,0,0,0,0,0,0,0,0,0,0,0,0,0,0,0,0,0,0,0,0,0,0,0,0,0,0,0,0,0,0,5.2309,5.2309,0,5.2345,5.2345,5.2346,5.2299,5.2297,5.2296,5.2294,5.2327,5.2329,5.2331,0,0,0,0,0,0,0,0,0,0,0,0,0,5.2195,5.2198,5.2309,5.231,5.231,5.2345,5.2345,5.2346,5.2299,5.2297,5.2295,5.2293,5.2326,5.2329,5.2332,0,0,0,0,0,0,0,0,0,0,0,0,0,5.2239,5.2199,5.2309,5.2291,5.229,5.2345,5.2345,5.2346,5.23,5.2297,5.2295,5.2292,5.2325,5.2328,5.2332,5.2405,0,0,5.2343,5.2345,0,0,0,0,0,0,0,0,5.2237,5.2243,5.2293,5.2292,5.2291,5.2315,5.2317,5.2366,5.23,5.2296,5.2294,5.2291,5.2325,5.2328,5.234,5.2406,5.2408,5.2343,5.2346,5.2347,5.2348,0,0,0,0,0,0,0,5.2234,5.2242,5.2323,5.2294,5.2293,5.228,5.2283,5.2326,5.2324,5.2296,5.2293,5.2298,5.2323,5.2337,5.2341,5.2408,5.2343,5.2347,5.2349,5.235,5.2534,5.2537,0,0,0,0,0,0,5.2234,5.2239,5.2322,5.2324,5.2257,5.2284,5.2288,5.231,5.2323,5.2323,5.23,5.2296,5.2332,5.2336,5.2342,5.2426,5.2347,5.2351,5.2353,5.2531,5.2535,5.2537,0,0,0,0,0,0,5.2231,5.2241,5.232,5.2281,5.229,5.2288,5.2314,5.2312,5.2325,5.2326,5.2325,5.2314,5.233,5.2336,5.2389,5.2427,5.2352,5.2356,5.2528,5.2532,5.2536,5.2597,0,0,0,0,0,0,5.2228,5.2241,5.227,5.2282,5.2292,5.2369,5.2316,5.2314,5.2332,5.2327,5.2339,5.2339,5.2328,5.2384,5.2393,5.243,5.2358,5.2525,5.253,5.2535,5.2592,5.2603,5.2612,0,0,0,0,0,5.2224,5.2285,5.2272,5.2282,5.2329,5.2372,5.2377,5.2365,5.2335,5.2363,5.2364,5.2339,5.2422,5.239,5.2399,5.2438,5.2522,5.2528,5.2534,5.2587,5.26,5.2612,0,0,0,0,0,0,5.2276,5.2286,5.2271,5.2338,5.2355,5.2364,5.2399,5.238,5.2404,5.2398,5.238,5.2384,5.244,5.2445,5.2409,5.2509,5.2467,5.2475,5.2503,5.2516,5.2526,5.2523,5.2362,0,0,0,0,0,5.2296,5.2331,5.2338,5.2396,5.2405,5.2401,5.2419,5.2408,5.2424,5.243,5.2434,5.2449,5.2478,5.2498,5.2525,5.2593,5.2593,5.2624,5.2634,5.2643,5.2649,5.2683,5.2696,5.2557,5.2557,5.2557,0,0,5.2335,5.2345,5.2369,5.2406,5.2418,5.2453,5.2407,5.2446,5.2472,5.2435,5.2485,5.2489,5.2505,5.2565,5.2592,5.257,5.2688,5.265,5.2657,5.2659,5.2691,5.2704,5.2716,5.2561,5.2561,5.256,0,0,5.2426,5.2438,5.2487,5.2499,5.2518,5.2514,5.2526,5.2538,5.2539,5.259,5.2563,5.2592,5.2644,5.2655,5.2667,5.2762,5.2739,5.2771,5.2824,5.2857,5.2868,5.2878,5.2909,5.2921,5.2778,5.2778,5.2778,0,5.2473,5.2526,5.2514,5.2556,5.2572,5.2542,5.259,5.2602,5.2628,5.2639,5.2616,5.2679,5.2687,5.2748,5.2771,5.2783,5.2794,5.2769,5.2868,5.2877,5.2886,5.2916,5.2928,5.2782,5.2782,5.2781,5.2781,0,5.2582,5.2619,5.2657,5.2683,5.2704,5.2748,5.2741,5.2763,5.2751,5.2749,5.28,5.2809,5.2836,5.2851,5.2839,5.291,5.2896,5.2871,5.2828,5.2903,5.2931,5.2943,5.2787,5.2786,5.2785,5.2784,0,0,5.2705,5.2724,5.2738,5.2749,5.2766,5.2794,5.2837,5.2865,5.2883,5.2902,5.2935,5.2979,5.2956,5.297,5.2959,5.2989,5.306,5.2959,5.2959,5.2976,5.3137,5.3155,5.3169,5.3046,5.3048,5.305,5.3136,0,5.2794,5.2869,5.2859,5.293,5.2963,5.2935,5.2972,5.2985,5.2985,5.3012,5.3011,5.3042,5.301,5.3018,5.3046,5.3046,5.3092,5.304,5.3075,5.3076,5.307,5.3184,5.3203,5.3283,5.3147,5.3148,5.315,0,5.2908,5.2932,5.3006,5.3017,5.3031,5.3064,5.3088,5.3115,5.3129,5.3127,5.3143,5.3126,5.3167,5.3125,5.3179,5.3144,5.3158,5.316,5.3162,5.3164,5.3116,5.3186,5.3309,5.332,5.3167,5.3166,5.3164,0,5.2988,5.3038,5.3089,5.3099,5.3114,5.3138,5.3145,5.3157,5.3174,5.3195,5.3205,5.3231,5.3244,5.3263,5.3253,5.3223,5.3308,5.3266,5.3306,5.3306,5.3323,5.3322,5.3448,5.3336,5.3336,5.3335,5.3335,0,5.3088,5.3134,5.3125,5.3156,5.3206,5.3194,5.3243,5.3247,5.3258,5.3287,5.3265,5.3293,5.3279,5.3305,5.3298,5.3343,5.3349,5.3347,5.3344,5.3348,5.3348,5.3356,5.3349,5.3339,5.3338,5.3337,5.3337,0,5.3185,5.3181,5.3234,5.3244,5.3248,5.3284,5.3291,5.3319,5.3318,5.3356,5.3364,5.336,5.3391,5.3383,5.3416,5.341,5.3467,5.3458,5.3462,5.3459,5.3499,5.3494,5.3633,5.3649,5.3528,5.3529,5.353,0,5.3248,5.3283,5.3296,5.3315,5.3324,5.3355,5.3372,5.3361,5.338,5.3398,5.3424,5.3452,5.3474,5.3523,5.3523,5.3547,5.3537,5.3584,5.354,5.3543,5.3535,5.3533,5.3535,5.3592,5.3593,5.3594,5.3595,0,5.3359,5.3355,5.3382,5.3408,5.3429,5.3449,5.3466,5.3483,5.3472,5.3494,5.3525,5.3542,5.3576,5.3603,5.3626,5.3631,5.3611,5.3609,5.3619,5.3623,5.3623,5.3622,5.3483,5.3606,5.3605,5.3604,5.3603,5.3603,5.344,5.3469,5.3483,5.3512,5.3524,5.3541,5.3567,5.3569,5.3595,5.3622,5.3613,5.3648,5.366,5.3688,5.3697,5.3723,5.3705,5.372,5.3724,5.3727,5.3731,5.3621,5.3727,5.3727,5.3726,5.3726,5.3726,0,5.3548,5.3555,5.3583,5.3608,5.3631,5.3612,5.363,5.365,5.3681,5.3695,5.3717,5.3752,5.3778,5.378,5.3805,5.3825,5.3817,5.3832,5.3829,5.383,5.3747,5.3735,5.3838,5.3838,5.3838,5.3838,5.3838,5.3838,5.3607,5.3654,5.3652,5.3705,5.3712,5.3746,5.3758,5.3772,5.3783,5.3823,5.3845,5.3847,5.3855,5.388,5.3903,5.3903,5.3912,5.3931,5.3927,5.3848,5.3837,5.3826,5.3814,5.3933,5.3933,5.4008,5.4009,5.4009]}]]